Oaxaca, Mexico

11:27 PM CDT on August 17, 2017 (GMT -0500)
Xoxocotlan International

Weather History for MMOX - November, 2013

Change the Weather History Date:

Monday, November 4, 2013

  Actual Average Record
Temperature  
Mean Temperature 70 °F -  
Max Temperature 87 °F 78 °F 87 °F (2013)
Min Temperature 52 °F 50 °F 44 °F (2005)
Cooling Degree Days 4    
Growing Degree Days 20 (Base 50)    
Moisture  
Dew Point 54 °F    
Average Humidity 64    
Maximum Humidity 100    
Minimum Humidity 32    
Precipitation  
Precipitation 0.00 in - - ()
Sea Level Pressure  
Sea Level Pressure 30.03 in    
Wind  
Wind Speed 4 mph ()    
Max Wind Speed 20 mph    
Max Gust Speed -    
Visibility 8.8 miles    
Events      
Averages and records for this station are not official NWS values.
T = Trace of Precipitation, MM = Missing Value Source: Averaged Metar Reports

Daily Weather History Graph

Daily Weather History Graph

Search for Another Location

Airport or City:

Trip Planner

Search our weather history database for the weather conditions in past years. The results will help you decide how hot, cold, wet, or windy it might be!

Date:

Astronomy

Nov. 04, 2013 Rise Set
Actual Time 6:26 AM CST 5:54 PM CST
Civil Twilight 6:03 AM CST 6:16 PM CST
Nautical Twilight 5:38 AM CST 6:42 PM CST
Astronomical Twilight 5:12 AM CST 7:08 PM CST
Moon 7:29 AM CST (11/4) 7:10 PM CST (11/4)
Length of Visible Light 12h 12m
Length of Day
11h 28m
New Moon, 2% of the Moon is Illuminated
Nov 4
New Moon
Nov 9
First Quarter
Nov 17
Full
Nov 25
Last Quarter
Dec 2
New

Hourly Weather History & Observations

Time (CST) Temp. Dew Point Humidity Pressure Visibility Wind Dir Wind Speed Gust Speed Precip Events Conditions
2:45 AM 58 °F 54 °F 81% 29.96 in 6 mi NE 2.2 mph - -  
5:45 AM 54 °F 51 °F 88% 30.01 in 6 mi WSW 2.2 mph - -  
6:06 AM 50.0 °F 50.0 °F 100% 29.93 in 7.0 mi Calm Calm - N/A   Scattered Clouds
6:46 AM 50.0 °F 50.0 °F 100% 30.20 in 7.0 mi North 2.3 mph - N/A   Mostly Cloudy
7:48 AM 55.4 °F 53.6 °F 94% 30.22 in 8.0 mi North 5.8 mph - N/A   Mostly Cloudy
8:45 AM 66 °F 55 °F 58% 30.07 in 11 mi NW 2.2 mph - -   Partly Cloudy
8:45 AM 60.8 °F 53.6 °F 77% 29.94 in 10.0 mi NW 3.5 mph - N/A   Mostly Cloudy
9:41 AM 66.2 °F 55.4 °F 68% 30.23 in 10.0 mi East 3.5 mph - N/A   Mostly Cloudy
10:43 AM 69.8 °F 55.4 °F 60% 30.22 in 10.0 mi NE 3.5 mph - N/A   Mostly Cloudy
11:45 AM 81 °F 56 °F 33% 29.99 in 7 mi SSW 2.2 mph - -   Partly Cloudy
11:45 AM 73.4 °F 55.4 °F 53% 29.84 in 10.0 mi ENE 6.9 mph - N/A   Mostly Cloudy
12:46 PM 77.0 °F 51.8 °F 41% 30.15 in 12.0 mi West 4.6 mph - N/A   Mostly Cloudy
1:41 PM 78.8 °F 51.8 °F 39% 30.11 in 12.0 mi NW 9.2 mph - N/A   Mostly Cloudy
2:45 PM 77.0 °F 53.6 °F 44% 29.67 in 12.0 mi East 8.1 mph - N/A   Mostly Cloudy
2:50 PM 80 °F 55 °F 32% 29.83 in 9 mi SE 4.5 mph - -   Partly Cloudy
3:42 PM 75.2 °F 55.4 °F 50% 30.06 in 12.0 mi East 19.6 mph - N/A   Mostly Cloudy
4:41 PM 75.2 °F 53.6 °F 47% 30.07 in 12.0 mi East 17.3 mph - N/A   Mostly Cloudy
5:43 PM 69.8 °F 55.4 °F 60% 29.83 in 12.0 mi SSW 9.2 mph - N/A   Mostly Cloudy
5:50 PM 72 °F 55 °F 44% 29.85 in 9 mi SSE 4.5 mph - -   Partly Cloudy
6:43 PM 68.0 °F 55.4 °F 64% 30.13 in 7.0 mi SE 8.1 mph - N/A   Mostly Cloudy
7:44 PM 66.2 °F 55.4 °F 68% 30.16 in 7.0 mi SE 5.8 mph - N/A   Mostly Cloudy
8:44 PM 62.6 °F 55.4 °F 77% 29.88 in 7.0 mi SSW 5.8 mph - N/A   Mostly Cloudy
8:45 PM 65 °F 55 °F 63% 29.93 in 6 mi WNW 2.2 mph - -   Partly Cloudy
9:43 PM 62.6 °F 55.4 °F 77% 30.21 in 7.0 mi ENE 2.3 mph - N/A   Mostly Cloudy
10:41 PM 62.6 °F 57.2 °F 82% 30.22 in 7.0 mi Calm Calm - N/A   Mostly Cloudy
11:45 PM 62 °F 56 °F 77% 29.96 in 6 mi SE 2.2 mph - -   Partly Cloudy